WJA321 MDPC-TNCM

Flight info

Callsign WJA321
Flight time 0h 52m
Altitude 33000
Route MELLA2T MELLA G633 MAZ RTE12 SJU RTE6 STT B520 PJM
Aircraft B738/M-SDE2E3FGHIRWXY/LB1

Departure

Time 2026-05-07 13:11
Airport Punta Cana International Airport (MDPC)

Arrival

Time 2026-05-07 14:03
Airport Princess Juliana International Airport (TNCM)
Time Latitude Longitude Altitude Speed Heading
2026-05-07 12:54 18.56378 -68.36335 49 ft 0 kts 176°
2026-05-07 12:57 18.56379 -68.36335 49 ft 1 kts 176°
2026-05-07 12:58 18.56393 -68.36336 40 ft 3 kts 176°
2026-05-07 12:58 18.56414 -68.36338 43 ft 3 kts 176°
2026-05-07 12:58 18.56433 -68.36339 44 ft 2 kts 176°
2026-05-07 12:58 18.56450 -68.36339 47 ft 3 kts 194°
2026-05-07 12:59 18.56464 -68.36331 46 ft 3 kts 242°
2026-05-07 12:59 18.56469 -68.36313 46 ft 2 kts 265°
2026-05-07 12:59 18.56469 -68.36307 45 ft 1 kts 266°
2026-05-07 13:03 18.56469 -68.36310 49 ft 2 kts 266°
2026-05-07 13:04 18.56469 -68.36361 49 ft 9 kts 283°
2026-05-07 13:04 18.56518 -68.36398 49 ft 9 kts 343°
2026-05-07 13:04 18.56549 -68.36446 49 ft 9 kts 272°
2026-05-07 13:04 18.56543 -68.36536 49 ft 16 kts 263°
2026-05-07 13:05 18.56532 -68.36652 47 ft 16 kts 265°
2026-05-07 13:05 18.56523 -68.36765 49 ft 15 kts 265°
2026-05-07 13:05 18.56516 -68.36846 49 ft 10 kts 264°
2026-05-07 13:05 18.56509 -68.36917 49 ft 10 kts 264°
2026-05-07 13:06 18.56503 -68.36987 47 ft 9 kts 265°
2026-05-07 13:06 18.56495 -68.37091 49 ft 18 kts 265°
2026-05-07 13:06 18.56484 -68.37218 49 ft 17 kts 265°
2026-05-07 13:06 18.56473 -68.37343 49 ft 17 kts 264°
2026-05-07 13:07 18.56462 -68.37461 49 ft 16 kts 264°
2026-05-07 13:07 18.56452 -68.37577 48 ft 15 kts 265°
2026-05-07 13:07 18.56444 -68.37687 49 ft 15 kts 265°
2026-05-07 13:07 18.56473 -68.37778 50 ft 10 kts 339°
2026-05-07 13:08 18.56516 -68.37785 50 ft 0 kts 353°
2026-05-07 13:09 18.56522 -68.37786 50 ft 7 kts 355°
2026-05-07 13:09 18.56599 -68.37791 48 ft 6 kts
2026-05-07 13:09 18.56607 -68.37785 50 ft 3 kts 40°
2026-05-07 13:09 18.56614 -68.37753 50 ft 6 kts 85°
2026-05-07 13:10 18.56615 -68.37736 50 ft 0 kts 85°
2026-05-07 13:10 18.56619 -68.37692 50 ft 18 kts 85°
2026-05-07 13:10 18.56661 -68.37210 50 ft 112 kts 85°
2026-05-07 13:11 18.56743 -68.36118 142 ft 182 kts 88°
2026-05-07 13:11 18.56873 -68.34671 881 ft 208 kts 86°
2026-05-07 13:11 18.57009 -68.33046 1488 ft 233 kts 85°
2026-05-07 13:11 18.57128 -68.31354 2451 ft 233 kts 90°
2026-05-07 13:12 18.56832 -68.29668 3157 ft 237 kts 114°
2026-05-07 13:12 18.55904 -68.28250 3863 ft 239 kts 134°
2026-05-07 13:12 18.54666 -68.27087 4634 ft 240 kts 139°
2026-05-07 13:12 18.53399 -68.25897 5033 ft 245 kts 137°
2026-05-07 13:13 18.52145 -68.24659 4941 ft 253 kts 136°
2026-05-07 13:13 18.50751 -68.23412 4920 ft 266 kts 142°
2026-05-07 13:13 18.49289 -68.22244 4899 ft 263 kts 142°
2026-05-07 13:13 18.47832 -68.21100 5301 ft 262 kts 143°
2026-05-07 13:14 18.46310 -68.19943 5954 ft 272 kts 144°
2026-05-07 13:14 18.44773 -68.18794 6961 ft 273 kts 144°
2026-05-07 13:14 18.43205 -68.17620 7847 ft 278 kts 143°
2026-05-07 13:14 18.41626 -68.16432 8711 ft 283 kts 143°
2026-05-07 13:15 18.40024 -68.15221 9551 ft 289 kts 143°
2026-05-07 13:15 18.38369 -68.13966 10330 ft 297 kts 143°
2026-05-07 13:15 18.36617 -68.12635 10620 ft 323 kts 143°
2026-05-07 13:15 18.34771 -68.11231 11130 ft 336 kts 143°
2026-05-07 13:16 18.32851 -68.09771 11859 ft 341 kts 144°
2026-05-07 13:16 18.30927 -68.08308 12629 ft 346 kts 144°
2026-05-07 13:16 18.28948 -68.06803 13365 ft 352 kts 144°
2026-05-07 13:16 18.26965 -68.05295 14035 ft 358 kts 144°
2026-05-07 13:17 18.24930 -68.03748 14740 ft 361 kts 144°
2026-05-07 13:17 18.22880 -68.02177 15454 ft 365 kts 141°
2026-05-07 13:17 18.21190 -68.00166 16109 ft 369 kts 118°
2026-05-07 13:17 18.20310 -67.97675 16833 ft 368 kts 98°
2026-05-07 13:18 18.20230 -67.94982 17566 ft 368 kts 85°
2026-05-07 13:18 18.20406 -67.92301 18263 ft 372 kts 83°
2026-05-07 13:18 18.20627 -67.89563 18881 ft 376 kts 83°
2026-05-07 13:18 18.20851 -67.86842 19499 ft 378 kts 83°
2026-05-07 13:19 18.21069 -67.84070 20150 ft 380 kts 83°
2026-05-07 13:19 18.21277 -67.81279 20783 ft 383 kts 83°
2026-05-07 13:19 18.21476 -67.78501 21392 ft 385 kts 83°
2026-05-07 13:19 18.21673 -67.75658 22009 ft 388 kts 83°
2026-05-07 13:20 18.21865 -67.72844 22601 ft 391 kts 83°
2026-05-07 13:20 18.22061 -67.69964 23173 ft 394 kts 83°
2026-05-07 13:20 18.22255 -67.67093 23725 ft 397 kts 82°
2026-05-07 13:20 18.22449 -67.64206 24156 ft 400 kts 82°
2026-05-07 13:21 18.22647 -67.61260 24589 ft 404 kts 82°
2026-05-07 13:21 18.22847 -67.58287 25026 ft 407 kts 82°
2026-05-07 13:21 18.23045 -67.55331 25462 ft 410 kts 82°
2026-05-07 13:21 18.23247 -67.52316 25898 ft 413 kts 82°
2026-05-07 13:22 18.23448 -67.49294 26314 ft 416 kts 82°
2026-05-07 13:22 18.23646 -67.46238 26732 ft 419 kts 82°
2026-05-07 13:22 18.23840 -67.43197 27137 ft 422 kts 82°
2026-05-07 13:22 18.24036 -67.40093 27535 ft 425 kts 82°
2026-05-07 13:23 18.24233 -67.36960 27932 ft 428 kts 82°
2026-05-07 13:23 18.24429 -67.33846 28350 ft 431 kts 82°
2026-05-07 13:23 18.24626 -67.30697 28891 ft 429 kts 82°
2026-05-07 13:23 18.24822 -67.27563 29488 ft 427 kts 81°
2026-05-07 13:24 18.25015 -67.24466 30044 ft 426 kts 81°
2026-05-07 13:24 18.25211 -67.21339 30498 ft 426 kts 81°
2026-05-07 13:24 18.25405 -67.18235 30972 ft 425 kts 81°
2026-05-07 13:24 18.25592 -67.15130 31484 ft 423 kts 82°
2026-05-07 13:25 18.25639 -67.12059 31954 ft 424 kts 85°
2026-05-07 13:25 18.25585 -67.08976 32412 ft 423 kts 86°
2026-05-07 13:25 18.25493 -67.05873 32881 ft 422 kts 87°
2026-05-07 13:25 18.25397 -67.02764 33098 ft 425 kts 87°
2026-05-07 13:26 18.25229 -66.96588 33100 ft 421 kts 86°
2026-05-07 13:26 18.25092 -66.90407 33120 ft 430 kts 86°
2026-05-07 13:27 18.24961 -66.84000 33122 ft 446 kts 86°
2026-05-07 13:27 18.24821 -66.77394 33109 ft 459 kts 87°
2026-05-07 13:28 18.24670 -66.70575 33114 ft 471 kts 87°
2026-05-07 13:28 18.24512 -66.63640 33106 ft 480 kts 87°
2026-05-07 13:29 18.24349 -66.56540 33102 ft 485 kts 87°
2026-05-07 13:29 18.24782 -66.49519 33107 ft 478 kts 74°
2026-05-07 13:30 18.26926 -66.43002 33105 ft 471 kts 62°
2026-05-07 13:30 18.29582 -66.36679 33101 ft 472 kts 63°
2026-05-07 13:31 18.32135 -66.30339 33098 ft 472 kts 63°
2026-05-07 13:31 18.33951 -66.23646 33106 ft 480 kts 79°
2026-05-07 13:32 18.33944 -66.16572 33113 ft 486 kts 89°
2026-05-07 13:32 18.33527 -66.09478 33096 ft 487 kts 89°
2026-05-07 13:33 18.33142 -66.02373 33098 ft 488 kts 89°
2026-05-07 13:33 18.32789 -65.95203 33096 ft 488 kts 89°
2026-05-07 13:34 18.32273 -65.84497 33104 ft 489 kts 89°
2026-05-07 13:35 18.31924 -65.77351 33110 ft 490 kts 89°
2026-05-07 13:35 18.31570 -65.70189 33103 ft 490 kts 89°
2026-05-07 13:36 18.31213 -65.63027 33104 ft 490 kts 89°
2026-05-07 13:36 18.30853 -65.55871 33106 ft 490 kts 89°
2026-05-07 13:37 18.30491 -65.48709 33099 ft 490 kts 89°
2026-05-07 13:37 18.30126 -65.41556 33100 ft 491 kts 89°
2026-05-07 13:38 18.29759 -65.34389 33099 ft 491 kts 89°
2026-05-07 13:38 18.29387 -65.27180 33100 ft 491 kts 89°
2026-05-07 13:39 18.29126 -65.20026 33094 ft 490 kts 86°
2026-05-07 13:39 18.29193 -65.12828 33094 ft 490 kts 85°
2026-05-07 13:40 18.29297 -65.05664 33092 ft 491 kts 85°
2026-05-07 13:40 18.29356 -64.98521 33089 ft 491 kts 86°
2026-05-07 13:41 18.29388 -64.91360 33001 ft 473 kts 86°
2026-05-07 13:41 18.29396 -64.88022 32871 ft 450 kts 86°
2026-05-07 13:41 18.29407 -64.84787 32735 ft 430 kts 85°
2026-05-07 13:41 18.29420 -64.81715 32419 ft 417 kts 85°
2026-05-07 13:42 18.29437 -64.78663 31813 ft 413 kts 85°
2026-05-07 13:42 18.29455 -64.75638 31153 ft 411 kts 85°
2026-05-07 13:42 18.29470 -64.72653 30566 ft 408 kts 85°
2026-05-07 13:42 18.29482 -64.69674 30000 ft 403 kts 86°
2026-05-07 13:43 18.29454 -64.66763 29360 ft 400 kts 90°
2026-05-07 13:43 18.29041 -64.63862 28664 ft 400 kts 101°
2026-05-07 13:43 18.28163 -64.61075 27990 ft 400 kts 108°
2026-05-07 13:43 18.27500 -64.59270 27581 ft 397 kts 109°
2026-05-07 13:44 18.26490 -64.56562 26962 ft 393 kts 109°
2026-05-07 13:44 18.25503 -64.53923 26365 ft 390 kts 109°
2026-05-07 13:44 18.24512 -64.51258 25773 ft 387 kts 109°
2026-05-07 13:44 18.23540 -64.48626 25201 ft 383 kts 109°
2026-05-07 13:45 18.22594 -64.46052 24653 ft 380 kts 109°
2026-05-07 13:45 18.21638 -64.43443 24095 ft 377 kts 109°
2026-05-07 13:45 18.20733 -64.40970 23546 ft 375 kts 109°
2026-05-07 13:45 18.19913 -64.38410 22918 ft 370 kts 101°
2026-05-07 13:46 18.19436 -64.35769 22348 ft 365 kts 98°
2026-05-07 13:46 18.19015 -64.33148 21780 ft 360 kts 97°
2026-05-07 13:46 18.18624 -64.30663 21236 ft 357 kts 97°
2026-05-07 13:46 18.18216 -64.28094 20667 ft 354 kts 98°
2026-05-07 13:47 18.17805 -64.25547 20138 ft 351 kts 98°
2026-05-07 13:47 18.17390 -64.23019 19612 ft 347 kts 98°
2026-05-07 13:47 18.16980 -64.20549 19096 ft 344 kts 98°
2026-05-07 13:47 18.16565 -64.18066 18593 ft 342 kts 98°
2026-05-07 13:48 18.16157 -64.15631 18058 ft 338 kts 98°
2026-05-07 13:48 18.15748 -64.13202 17487 ft 336 kts 98°
2026-05-07 13:48 18.15340 -64.10787 16935 ft 333 kts 98°
2026-05-07 13:48 18.14940 -64.08423 16397 ft 330 kts 98°
2026-05-07 13:49 18.14538 -64.06048 15862 ft 327 kts 98°
2026-05-07 13:49 18.14146 -64.03732 15353 ft 324 kts 98°
2026-05-07 13:49 18.13751 -64.01401 14857 ft 321 kts 98°
2026-05-07 13:49 18.13359 -63.99085 14361 ft 321 kts 98°
2026-05-07 13:50 18.12966 -63.96764 14055 ft 319 kts 98°
2026-05-07 13:50 18.12584 -63.94518 13758 ft 314 kts 98°
2026-05-07 13:50 18.12197 -63.92241 13293 ft 316 kts 98°
2026-05-07 13:50 18.11815 -63.89994 13021 ft 312 kts 98°
2026-05-07 13:51 18.11434 -63.87756 12728 ft 309 kts 98°
2026-05-07 13:51 18.11056 -63.85534 12398 ft 307 kts 98°
2026-05-07 13:51 18.10683 -63.83347 12108 ft 304 kts 98°
2026-05-07 13:51 18.10310 -63.81159 11876 ft 300 kts 98°
2026-05-07 13:52 18.09944 -63.79015 11648 ft 295 kts 98°
2026-05-07 13:52 18.09586 -63.76918 11376 ft 293 kts 98°
2026-05-07 13:52 18.09226 -63.74810 11080 ft 291 kts 99°
2026-05-07 13:52 18.08873 -63.72743 10799 ft 290 kts 99°
2026-05-07 13:53 18.08516 -63.70657 10520 ft 288 kts 99°
2026-05-07 13:53 18.08161 -63.68588 10246 ft 286 kts 99°
2026-05-07 13:53 18.07813 -63.66553 9975 ft 285 kts 99°
2026-05-07 13:53 18.07460 -63.64497 9669 ft 283 kts 99°
2026-05-07 13:54 18.07114 -63.62475 9318 ft 279 kts 99°
2026-05-07 13:54 18.06772 -63.60485 8927 ft 278 kts 99°
2026-05-07 13:54 18.06430 -63.58493 8553 ft 276 kts 99°
2026-05-07 13:54 18.06093 -63.56533 8214 ft 273 kts 99°
2026-05-07 13:55 18.05806 -63.54865 7913 ft 271 kts 99°
2026-05-07 13:55 18.05470 -63.52917 7567 ft 269 kts 99°
2026-05-07 13:55 18.05138 -63.50985 7223 ft 266 kts 99°
2026-05-07 13:55 18.04810 -63.49086 6885 ft 265 kts 99°
2026-05-07 13:56 18.04483 -63.47186 6556 ft 262 kts 99°
2026-05-07 13:56 18.04163 -63.45333 6215 ft 259 kts 99°
2026-05-07 13:56 18.03841 -63.43465 5790 ft 260 kts 99°
2026-05-07 13:56 18.03515 -63.41578 5395 ft 260 kts 99°
2026-05-07 13:57 18.03191 -63.39704 5010 ft 260 kts 99°
2026-05-07 13:57 18.02874 -63.37872 4728 ft 255 kts 99°
2026-05-07 13:57 18.02565 -63.36084 4657 ft 239 kts 99°
2026-05-07 13:57 18.02276 -63.34418 4547 ft 223 kts 99°
2026-05-07 13:58 18.02011 -63.32889 4440 ft 208 kts 99°
2026-05-07 13:58 18.01758 -63.31436 4313 ft 195 kts 98°
2026-05-07 13:58 18.01517 -63.30048 4047 ft 189 kts 99°
2026-05-07 13:58 18.01495 -63.28726 3760 ft 181 kts 78°
2026-05-07 13:59 18.01706 -63.27486 3534 ft 173 kts 80°
2026-05-07 13:59 18.01885 -63.26274 3338 ft 163 kts 81°
2026-05-07 13:59 18.02058 -63.25098 2973 ft 164 kts 81°
2026-05-07 13:59 18.02224 -63.23945 2705 ft 160 kts 81°
2026-05-07 14:00 18.02392 -63.22776 2342 ft 162 kts 82°
2026-05-07 14:00 18.02559 -63.21628 1995 ft 162 kts 82°
2026-05-07 14:00 18.02726 -63.20453 1702 ft 158 kts 82°
2026-05-07 14:00 18.02887 -63.19329 1458 ft 153 kts 83°
2026-05-07 14:01 18.03065 -63.18234 1277 ft 152 kts 82°
2026-05-07 14:01 18.03226 -63.17165 1109 ft 142 kts 82°
2026-05-07 14:01 18.03355 -63.16185 927 ft 135 kts 83°
2026-05-07 14:01 18.03493 -63.15198 716 ft 137 kts 82°
2026-05-07 14:02 18.03634 -63.14206 507 ft 138 kts 82°
2026-05-07 14:02 18.03770 -63.13220 315 ft 132 kts 82°
2026-05-07 14:02 18.03900 -63.12289 149 ft 127 kts 82°
2026-05-07 14:02 18.04014 -63.11455 29 ft 115 kts 82°
2026-05-07 14:03 18.04121 -63.10716 20 ft 91 kts 80°
2026-05-07 14:03 18.04202 -63.10132 19 ft 60 kts 82°
2026-05-07 14:03 18.04238 -63.09946 20 ft 12 kts 51°
2026-05-07 14:03 18.04236 -63.09916 19 ft 1 kts 162°
2026-05-07 14:04 18.04227 -63.09942 19 ft 11 kts 264°
2026-05-07 14:04 18.04208 -63.10095 18 ft 27 kts 262°
2026-05-07 14:04 18.04180 -63.10287 19 ft 26 kts 261°
2026-05-07 14:04 18.04155 -63.10463 21 ft 24 kts 261°
2026-05-07 14:05 18.04130 -63.10630 21 ft 23 kts 261°
2026-05-07 14:05 18.04114 -63.10752 20 ft 16 kts 262°
2026-05-07 14:05 18.04099 -63.10863 22 ft 15 kts 262°
2026-05-07 14:05 18.04086 -63.10971 21 ft 15 kts 262°
2026-05-07 14:06 18.04073 -63.11075 21 ft 14 kts 263°
2026-05-07 14:06 18.04083 -63.11148 21 ft 6 kts 324°